Location: La Pernelle
(49.6188°N, 1.2999°W)
Time: 09:27:49
(UTC+00:00)

Cosmos 1461 - Pass Details

Date: 12 June 2021
Orbit: 513 x 650 km, 65.0° (Epoch: 26 July)

Event Time Altitude Azimuth Distance (km) Brightness Sun altitude
Rises 22:37:55 0° 319° (NW) 2,838 7.9 -14.6°
Reaches altitude 10° 22:40:13 10° 318° (NW) 1,909 6.7 -14.8°
Maximum altitude 22:44:30 75° 234° (SW) 588 2.8 -15.0°
Enters shadow 22:46:36 28° 153° (SSE) 1,062 3.7 -15.1°
